Location: Newark
(21.1200°N, 73.4000°E)
Time: 20:49:51
(UTC+00:00)

Vanguard 1 Rocket - Pass Details

Date: 25 January 2020
Orbit: 650 x 4226 km, 34.3° (Epoch: 22 February)

Event Time Altitude Azimuth Distance (km) Brightness Sun altitude
Rises 12:35:27 0° 292° (WNW) 7,228 12.8 2.7°
Reaches altitude 10° 12:40:04 10° 286° (WNW) 6,572 12.7 1.7°
Maximum altitude 13:01:54 47° 221° (SW) 5,021 11.7 -3.0°
Drops below altitude 10° 13:24:37 10° 155° (SSE) 6,696 11.7 -8.1°
Sets 13:29:33 0° 148° (SSE) 7,352 11.9 -9.2°
